Weather observations for the past three days for
Petersburg
Imperial (Metric)
Date Time (akdt) Wind (mph) Vis. (mi.) Weather Sky Cond. Temperature (ºF) Relative Humidity Wind Chill (°F) Heat Index (°F) Pressure Precipitation (in)
Air Dwpt 6 hour altimeter (in) sea level (mb) 1 hr 3 hr 6 hr
Max. Min.
21 18:56 Calm 10.00 Mostly Cloudy BKN050 62.1 57.9 86% 30.1 1019.5
21 17:56 E 5 10.00 Overcast BKN028 OVC039 62.1 57.9 86% 30.1 1019.6
21 16:56 W 9 10.00 Overcast SCT026 OVC035 66 57.9 75% 30.1 1019.5
21 15:56 Calm 10.00 Overcast BKN024 OVC030 64 59 64 57.9 84% 30.1 1019.5
21 14:56 E 6 10.00 Mostly Cloudy FEW018 SCT034 BKN043 63 59 87% 30.09 1019.3
21 13:56 E 5 10.00 Overcast FEW018 SCT028 OVC043 62.1 57.9 86% 30.08 1019.0
21 12:56 E 5 10.00 Overcast BKN020 BKN027 OVC041 62.1 57.9 86% 30.08 1018.9
21 11:56 Vrbl 5 10.00 Overcast BKN015 OVC026 62.1 57 84% 30.08 1019.0
21 10:56 NE 3 10.00 Overcast OVC013 59 55.9 90% 30.09 1019.2
21 09:56 Calm 10.00 Overcast OVC013 57.9 55.9 57.9 55.9 93% 30.09 1019.2
21 08:56 Calm 10.00 Overcast OVC013 57 55 93% 30.1 1019.6
21 07:56 E 3 10.00 Overcast OVC015 57 55 93% 30.1 1019.6
21 06:56 Calm 10.00 Overcast OVC017 57 55 93% 30.1 1019.7
21 05:56 Calm 10.00 Overcast FEW015 OVC027 57 55 93% 30.12 1020.1
21 04:56 Calm 10.00 Overcast FEW014 OVC029 55.9 55 97% 30.13 1020.5
21 03:56 Calm 10.00 Overcast OVC031 57 55.9 63 57 96% 30.14 1020.8
21 02:56 Calm 10.00 Overcast OVC033 57 55.9 96% 30.14 1021.0
21 01:56 Calm 10.00 Overcast OVC033 59 57 93% 30.15 1021.3
21 00:56 Calm 10.00 Overcast OVC029 59 57 93% 30.16 1021.5
20 23:56 Calm 10.00 Overcast OVC031 57.9 57 97% 30.17 1021.8
20 22:56 Calm 10.00 Overcast OVC031 59 57.9 96% 30.17 1022.0
20 21:56 S 3 10.00 Light Rain BKN033 OVC045 62.1 59 69.1 59 90% 30.17 1022.0
20 20:56 Calm 10.00 Overcast BKN033 BKN047 OVC075 59 57 93% 30.17 1022.0
20 19:56 E 3 10.00 Mostly Cloudy FEW040 SCT060 BKN100 61 57.9 90% 30.16 1021.7
20 18:56 E 5 10.00 Mostly Cloudy FEW038 BKN075 BKN100 64 59 84% 30.15 1021.4
20 17:56 NE 5 10.00 Partly Cloudy FEW060 SCT100 66 59 78% 30.16 1021.5
20 16:56 NE 6 10.00 Mostly Cloudy FEW055 SCT070 BKN100 66 59 78% 30.16 1021.7
20 14:56 E 7 10.00 Mostly Cloudy SCT070 BKN095 64 59 84% 30.19 1022.4
20 13:56 E 6 10.00 Mostly Cloudy BKN070 69.1 61 76% 30.19 1022.6
20 12:56 E 5 10.00 Overcast FEW060 BKN070 OVC090 66 60.1 81% 30.21 1023.1
20 11:56 E 5 10.00 Mostly Cloudy SCT050 BKN070 BKN095 64.9 59 81% 30.21 1023.3
20 10:56 NE 3 10.00 Mostly Cloudy BKN049 BKN060 64 60.1 87% 30.22 1023.4
20 09:56 E 3 10.00 Overcast SCT047 BKN065 OVC100 59 57.9 60.1 55 96% 30.22 1023.5
20 08:56 Calm 10.00 Overcast SCT003 BKN040 OVC080 57 57 100% 30.22 1023.6
20 07:56 Calm 4.00 Fog/Mist BKN003 OVC041 55 55 100% 30.21 1023.3
20 06:56 Calm 4.00 Fog/Mist BKN001 BKN014 OVC038 55.9 55.9 100% 30.2 1023.0
20 05:56 E 5 10.00 Overcast BKN006 OVC042 57.9 57.9 100% 30.2 1023.1
20 04:56 Calm 0.50 Fog OVC004 55.9 55.9 100% 30.2 1023.0
20 03:56 Calm 2.00 Fog/Mist OVC002 55.9 55.9 59 55 100% 30.21 1023.1 0.05
20 02:56 N 3 10.00 Light Rain OVC002 55.9 55.9 100% 30.21 1023.1 0.01
20 01:56 E 3 10.00 Light Rain SCT002 OVC008 55.9 55.9 100% 30.2 1023.1 0.01
20 00:56 E 3 4.00 Light Rain Fog/Mist OVC002 55 55 100% 30.21 1023.1 0.02 0.03
19 23:56 NE 7 10.00 Light Rain FEW025 OVC042 57 55.9 96% 30.2 0.0 0.01
19 22:56 Calm 10.00 Light Rain FEW029 OVC050 59 57.9 96% 30.19 0.0
19 21:56 W 3 10.00 Overcast SCT021 BKN029 OVC065 59 57.9 64.9 59 96% 30.19 0.0 0.01 0.01
19 20:56 Calm 10.00 Light Rain FEW026 BKN030 OVC060 59 57 93% 30.18 0.0
19 19:56 Calm 10.00 Mostly Cloudy FEW028 SCT035 BKN048 62.1 60.1 93% 30.16 0.0
19 18:56 NE 5 10.00 Overcast OVC046 63 60.1 90% 30.16 0.0
19 17:56 NW 5 10.00 Mostly Cloudy FEW028 BKN070 64 60.1 87% 30.15 0.0
19 16:56 E 3 10.00 Overcast SCT028 OVC070 64.9 61 87% 30.14 0.0
19 15:56 NE 5 10.00 Mostly Cloudy FEW026 SCT050 BKN085 64.9 63 93% 30.14 0.0 0.05
19 14:56 Calm 10.00 Overcast FEW033 BKN042 OVC065 66.9 61 81% 30.13 0.0
19 13:56 Vrbl 3 10.00 Mostly Cloudy FEW023 SCT034 BKN047 66.9 61 81% 30.12 0.0
19 12:57 SW 3 10.00 Mostly Cloudy FEW006 SCT018 BKN060 62.6 59 88% 30.11 0.0
19 12:56 N 5 10.00 Partly Cloudy FEW011 SCT033 SCT049 64.9 60.1 84% 30.11 0.0
19 11:57 E 3 10.00 Light Rain FEW008 SCT032 BKN070 60.8 59 94% 30.09 0.0
19 11:30 E 3 10.00 Light Rain FEW009 SCT033 BKN070 62.6 59 88% 30.09 0.0
19 10:57 NE 3 10.00 Mostly Cloudy FEW007 SCT033 BKN065 62.6 57.2 83% 30.07 0.0
19 09:56 Calm 10.00 Overcast FEW007 BKN065 OVC110 61 57 62.1 53.1 87% 30.07 1018.7
19 08:56 Calm 10.00 Mostly Cloudy FEW005 BKN060 BKN120 57.9 55.9 93% 30.08 1018.7
19 07:56 E 3 10.00 Mostly Cloudy FEW003 BKN060 BKN120 59 55.9 90% 30.06 1018.2
19 06:56 Calm 10.00 Patches Fog SCT003 BKN120 55 55 100% 30.05 1018.0
19 05:56 Calm 10.00 Partly Cloudy SCT120 54 54 100% 30.04 1017.6
19 04:56 Calm 10.00 Mostly Cloudy BKN110 53.1 53.1 100% 30.03 1017.4
19 03:56 Calm 10.00 Mostly Cloudy BKN110 54 54 55 53.1 100% 30.03 0.0
19 00:56 E 3 10.00 Mostly Cloudy SCT048 BKN110 55 54 96% 30.05 0.0
18 23:56 Calm 7.00 Overcast FEW049 SCT065 OVC100 55 54 96% 30.06 0.0
18 22:56 Calm 10.00 Mostly Cloudy SCT065 BKN090 55 54 96% 30.06 0.0
18 20:56 Calm 10.00 Overcast BKN040 OVC048 59 55 87% 30.06 0.0
18 19:57 E 6 10.00 Mostly Cloudy FEW008 BKN042 60.8 55.4 83% 30.06 0.0
18 19:56 E 6 10.00 Overcast OVC042 60.1 55.9 86% 30.06 0.0
Date Time (akdt) Wind (mph) Vis. (mi.) Weather Sky Cond. Air Dwpt Max. Min. Relative Humidity Wind Chill (°F) Heat Index (°F) altimeter (in) sea level (mb) 1 hr 3 hr 6 hr
6 hour
Temperature (ºF) Pressure Precipitation (in)